Location: *
(41.7492°S, 135.4150°W)
Time: 04:54:41
(UTC+00:00)

TIGRISAT - Pass Details

Date: 04 July 2022
Orbit: 603 x 686 km, 97.7° (Epoch: 08 August)

Event Time Altitude Azimuth Distance (km) Brightness Sun altitude
Rises 02:07:45 0° 28° (NNE) 2,962 ? -4.9°
Reaches altitude 10° 02:09:59 10° 34° (NNE) 2,073 ? -5.3°
Maximum altitude 02:14:21 49° 107° (ESE) 871 ? -6.0°
Drops below altitude 10° 02:18:53 10° 181° (S) 2,145 ? -6.8°
Sets 02:21:13 0° 186° (S) 3,077 ? -7.2°
